Location: The Saddle
(36.8333°N, 80.3417°W)
Time: 07:34:44
(UTC-05:00)

Vanguard 2 Rocket - Pass Details

Date: 16 December 2023
Orbit: 555 x 3309 km, 32.9° (Epoch: 02 March)

Event Time Altitude Azimuth Distance (km) Brightness Sun altitude
Rises 18:48:15 0° 282° (WNW) 6,879 12.5 -19.7°
Reaches altitude 10° 18:53:31 10° 273° (W) 6,083 12.1 -20.7°
Maximum altitude 19:08:58 30° 222° (SW) 4,741 11.0 -23.7°
Drops below altitude 10° 19:23:27 10° 169° (S) 5,633 10.9 -26.6°
Sets 19:28:12 0° 159° (SSE) 6,311 11.1 -27.5°
